Find Starlink 6229

NORAD ID: 57093 Int'l Des: 2023-088 Owner: SPXS Country: US Constellation: starlink operational
LEOCIRCULAR

現在のビュー

3D地球を読み込み中...

About Starlink 6229

Starlink 6229 (NORAD 57093) is a starlink constellation satellite (v1.5) launched Jun 22, 2023 by SPXS of US. It operates in LEO, CIRCULAR orbit with a mass of 305.00 kg.

Starlink 6229について

説明を読み込み中...

次回通過

Passes for default location (London). Set your location on the main map for personalized predictions.

高度履歴

Loading altitude history...

軌道要素

1 57093U 23088AX 26194.18314556 .00000180 00000-0 16070-4 0 9997
2 57093 43.0019 107.3391 0001116 235.1802 124.8945 15.27579297169695
Epoch: Jul 13, 2026 • Age: 26 hours

現在のステータス

高度 491.5 km
遠地点 / 近地点 N/A
速度 7.62 km/s
衛星直下点 -32.98°S, 64.92°W
打ち上げ日 Jun 22, 2023
運用期間 3 years
タイプ internet

技術仕様

分類 Payload
質量 305.00 kg
乾燥質量 290.00 kg
総質量 305.00 kg
長さ 0.20 m
直径 2.80 m
スパン 9.00 m
形状 Box + pan
製造者 SPXS
バスタイプ Starlink
フェーズステータス In Orbit
所有者/国 SPXS/US

Most Searched